Вернуться в каталог

STARLINK-4677

АктивенСвязьVLEO
NORAD 53600·PAYLOAD·🇺🇸 United States

Запущен Aug 28, 2022 с Cape Canaveral Space Force Station

Loading…

Ближайшие Пролёты (ближайшие 24 часа)

TLE

СвежийSource: CelesTrak SupGP

Эпоха: Sep 15, 2026, 01:47 UTC

1 53600C 22104N   26258.07479167  .00032486  00000+0  96026-3 0  2583
2 53600  53.1582 101.2860 0001544  74.9574  38.8814 15.34358939    11

Отслеживайте STARLINK-4677 в реальном времени с AllMySat

Download on the App Store